Overview Statistics Trail Chart Weather Telemetry Raw packets
 

This is the latest recevied weather packets stored in our database for station/object KB1RMA-4. If no packets are shown the sender has not sent any weather packets the latest 10 day(s).

<< 70 71 72 73 74 75 76 >>
Time Temp. Humidity Pressure Rain* Wind** Luminosity Snow
1788132916 24.44° C 54% 1015.3 hPa 0 mm - 0 W/m² -
1788132612 24.44° C 54% 1015.4 hPa 0 mm - 0 W/m² -
1788132308 24.44° C 55% 1015.1 hPa 0 mm - 0 W/m² -
1788132003 24.44° C 54% 1015.3 hPa 0 mm - 0 W/m² -
1788131699 24.44° C 53% 1015.4 hPa 0 mm - 1 W/m² -
1788131398 24.44° C 53% 1015.4 hPa 0 mm - 2 W/m² -
1788131093 25° C 53% 1015.1 hPa 0 mm - 3 W/m² -
1788130792 25° C 53% 1015.5 hPa 0 mm - 4 W/m² -
1788130489 25° C 52% 1015.5 hPa 0 mm - 9 W/m² -
1788130188 25° C 53% 1015.6 hPa 0 mm - 8 W/m² -
1788129887 25° C 53% 1015.7 hPa 0 mm - 10 W/m² -
1788129584 25° C 52% 1015.7 hPa 0 mm - 13 W/m² -
1788129280 25° C 53% 1015.7 hPa 0 mm - 20 W/m² -
1788128979 25.56° C 53% 1015.8 hPa 0 mm - 25 W/m² -
1788128674 25.56° C 52% 1015.6 hPa 0 mm - 31 W/m² -
1788128370 25.56° C 51% 1015.6 hPa 0 mm - 39 W/m² -
1788128066 26.11° C 52% 1015.9 hPa 0 mm - 62 W/m² -
1788127762 26.11° C 51% 1015.5 hPa 0 mm - 90 W/m² -
1788127462 25.56° C 50% 1015.7 hPa 0 mm - 76 W/m² -
1788127159 26.11° C 50% 1015.7 hPa 0 mm - 37 W/m² -
1788126854 26.11° C 51% 1015.7 hPa 0 mm - 54 W/m² -
1788126549 26.11° C 50% 1015.8 hPa 0 mm - 63 W/m² -
1788126245 26.11° C 51% 1015.8 hPa 0 mm - 64 W/m² -
1788125944 26.11° C 50% 1015.8 hPa 0 mm - 88 W/m² -
1788125640 26.11° C 49% 1016.1 hPa 0 mm - 75 W/m² -

* Rain latest hour (hover to see other rain measurements)
** Current wind speed in m/s (hover to see current wind gust speed)